sat.trackr.live / text

‹ back to catalog

STARLINK-5382

NORAD 54820 · 2022-177A

PAYLOAD ACTIVE UNKNOWN

§ Identity

Operator
Country
US
Launch date
2022-12-28
Launch site
AFETR
Launch vehicle
Mass (kg)
RCS (m²)

Purposes: comms

External: N2YO · Heavens-Above · Gunter

§ Orbital elements

Epoch: 2026-05-25T01:06:12.247776Z

Period
94.27 min
Inclination
43.0044°
Eccentricity
0.0001323
Mean motion
15.27579644 rev/d
Perigee alt
482.1 km
Apogee alt
484.0 km
Semi-major
6,861.2 km
B*
-7.4107e-5
RAAN
64.6277°
Arg perigee
265.3151°
Mean anomaly
94.7550°
Rev number
18,860

§ Raw data

STARLINK-53821 54820U 22177A   26145.04597509 -.00002301  00000+0 -74107-4 0  99952 54820  43.0044  64.6277 0001323 265.3151  94.7550 15.27579644188603

JSON: /api/v1/satellites/54820 · /tle

For live sub-satellite position, see the globe view (requires WebGL).

§ Visibility from observer

Set your observer location to see the next 7 days of passes ≥ 10°. The values pass through the URL so the page stays shareable.

No JS? Fill the form by hand. The geolocation button needs JavaScript.